IZ2XSB-13 Weather Reports


Display with metric or nautical units.
time (UTC)temp
F
wind
direction
speed
MPH
gust
MPH
rain 1hr
in
rain 24hr
in
rain mn
in
humidity
%
barometer
mb
20260503053343 58 86 2.0 5.0 0.00 0.00 0.00 67 1020.8
20260503052821 58 263 3.0 6.0 0.00 0.00 0.00 62 1020.8
20260503052317 58 254 4.0 9.0 0.00 0.00 0.00 63 1020.8
20260503051817 58 270 4.0 9.0 0.00 0.00 0.00 62 1020.8
20260503051336 57 254 3.0 5.0 0.00 0.00 0.00 63 1020.7
20260503050815 57 208 3.0 5.0 0.00 0.00 0.00 63 1020.8
20260503050315 56 250 2.0 4.0 0.00 0.00 0.00 66 1020.8
20260503045814 56 311 2.0 4.0 0.00 0.00 0.00 66 1020.9
20260503045334 55 316 2.0 5.0 0.00 0.00 0.00 66 1020.9
20260503044814 55 279 4.0 5.0 0.00 0.00 0.00 66 1021.0
20260503044314 55 282 4.0 5.0 0.00 0.00 0.00 66 1020.8
20260503043815 55 278 4.0 5.0 0.00 0.00 0.00 65 1020.9
20260503043333 56 286 2.0 4.0 0.00 0.00 0.00 65 1021.0
20260503042833 56 298 2.0 4.0 0.00 0.00 0.00 64 1021.0
20260503042333 56 284 2.0 5.0 0.00 0.00 0.00 63 1020.9
20260503041832 56 183 2.0 6.0 0.00 0.00 0.00 63 1020.9
20260503041332 56 333 4.0 7.0 0.00 0.00 0.00 64 1021.0
20260503040831 56 265 5.0 9.0 0.00 0.00 0.00 64 1020.9
20260503040331 56 271 6.0 9.0 0.00 0.00 0.00 64 1020.8
20260503035829 56 271 5.0 7.0 0.00 0.00 0.00 64 1020.9
20260503035330 56 281 4.0 7.0 0.00 0.00 0.00 64 1020.9
20260503034829 56 275 4.0 7.0 0.00 0.00 0.00 64 1020.8
20260503034330 56 305 2.0 5.0 0.00 0.00 0.00 64 1020.8
20260503033849 56 121 2.0 5.0 0.00 0.00 0.00 64 1021.0
20260503033327 56 5 2.0 5.0 0.00 0.00 0.00 65 1021.0
20260503032827 56 304 3.0 7.0 0.00 0.00 0.00 65 1020.9
20260503032347 56 291 5.0 7.0 0.00 0.00 0.00 65 1021.0
20260503031826 56 267 5.0 6.0 0.00 0.00 0.00 64 1021.1
20260503031325 56 284 4.0 5.0 0.00 0.00 0.00 65 1021.1
20260503030825 56 318 2.0 5.0 0.00 0.00 0.00 64 1021.1
20260503030325 56 292 2.0 5.0 0.00 0.00 0.00 64 1021.2
20260503025826 56 323 3.0 5.0 0.00 0.00 0.00 64 1021.1
20260503025325 56 335 2.0 4.0 0.00 0.00 0.00 64 1021.2
20260503024825 56 310 2.0 4.0 0.00 0.00 0.00 64 1021.2
20260503024324 56 326 3.0 4.0 0.00 0.00 0.00 63 1021.2
20260503023823 56 283 3.0 4.0 0.00 0.00 0.00 63 1021.3
20260503023339 56 275 3.0 4.0 0.00 0.00 0.00 63 1021.3
20260503022818 56 263 3.0 4.0 0.00 0.00 0.00 63 1021.3
20260503022338 56 315 2.0 4.0 0.00 0.00 0.00 63 1021.3
20260503021816 56 272 1.0 5.0 0.00 0.00 0.00 62 1021.3
20260503021315 56 289 3.0 5.0 0.00 0.00 0.00 64 1021.4
20260503020815 57 284 3.0 7.0 0.00 0.00 0.00 63 1021.3
20260503020316 56 316 4.0 7.0 0.00 0.00 0.00 64 1021.4
20260503015816 56 298 6.0 9.0 0.00 0.00 0.00 63 1021.3
20260503015317 56 294 6.0 9.0 0.00 0.00 0.00 64 1021.4
20260503014815 56 290 3.0 4.0 0.00 0.00 0.00 65 1021.4
20260503014315 56 275 2.0 3.0 0.00 0.00 0.00 65 1021.3
20260503013833 56 284 2.0 4.0 0.00 0.00 0.00 64 1021.5
20260503013333 56 315 2.0 4.0 0.00 0.00 0.00 65 1021.5
20260503012815 56 288 3.0 4.0 0.00 0.00 0.00 65 1021.5
20260503012334 56 291 3.0 4.0 0.00 0.00 0.00 65 1021.5
20260503011832 56 305 2.0 4.0 0.00 0.00 0.00 65 1021.6
20260503011330 56 296 1.0 4.0 0.00 0.00 0.00 63 1021.6
20260503010829 56 315 2.0 3.0 0.00 0.00 0.00 63 1021.7
20260503010326 56 314 1.0 3.0 0.00 0.00 0.00 62 1021.7
20260503005824 56 319 2.0 3.0 0.00 0.00 0.00 63 1021.7
20260503005322 56 295 1.0 3.0 0.00 0.00 0.00 62 1021.8
20260503004822 56 293 2.0 3.0 0.00 0.00 0.00 63 1021.8
20260503004342 56 300 2.0 3.0 0.00 0.00 0.00 63 1022.0
20260503003820 56 326 2.0 4.0 0.00 0.00 0.00 62 1021.9
20260503003320 56 316 2.0 4.0 0.00 0.00 0.00 62 1021.9
20260503002818 56 336 2.0 4.0 0.00 0.00 0.00 62 1021.9
20260503002317 56 312 3.0 4.0 0.00 0.00 0.00 62 1022.0
20260503001836 56 279 2.0 3.0 0.00 0.00 0.00 63 1022.0
20260503001335 56 277 2.0 3.0 0.00 0.00 0.00 63 1022.2
20260503000853 56 96 1.0 3.0 0.00 0.00 0.00 62 1022.2
20260503000322 56 351 2.0 3.0 0.00 0.00 0.00 62 1022.3
20260502235821 56 292 2.0 3.0 0.00 0.00 0.00 62 1022.3
20260502235319 56 311 2.0 3.0 0.00 0.00 0.00 62 1022.3
20260502234829 57 308 1.0 2.0 0.00 0.00 0.00 61 1022.4
20260502234328 57 337 2.0 2.0 0.00 0.00 0.00 60 1022.4
20260502233826 57 11 1.0 2.0 0.00 0.00 0.00 59 1022.5
20260502233324 57 312 1.0 4.0 0.00 0.00 0.00 59 1022.6
20260502232841 57 350 1.0 4.0 0.00 0.00 0.00 59 1022.6
20260502232338 57 308 2.0 3.0 0.00 0.00 0.00 59 1022.6
20260502231824 57 296 2.0 3.0 0.00 0.00 0.00 58 1022.6
20260502231332 57 300 2.0 3.0 0.00 0.00 0.00 58 1022.6
20260502230832 57 281 2.0 3.0 0.00 0.00 0.00 58 1022.8
20260502230321 57 284 2.0 3.0 0.00 0.00 0.00 59 1022.7
20260502225821 57 302 2.0 3.0 0.00 0.00 0.00 59 1022.8
20260502225321 57 340 2.0 3.0 0.00 0.00 0.00 58 1022.8
20260502224819 57 344 2.0 3.0 0.00 0.00 0.00 57 1022.8
20260502224318 58 309 2.0 3.0 0.00 0.00 0.00 57 1022.8
20260502223816 58 306 1.0 3.0 0.00 0.00 0.00 56 1022.8
20260502223314 58 283 2.0 3.0 0.00 0.00 0.00 57 1022.9
20260502222813 58 277 1.0 3.0 0.00 0.00 0.00 57 1022.9
20260502222332 58 281 2.0 4.0 0.00 0.00 0.00 55 1022.9
20260502221829 58 250 2.0 4.0 0.00 0.00 0.00 55 1022.9
20260502221327 58 279 2.0 3.0 0.00 0.00 0.00 56 1022.9
20260502220829 58 305 1.0 3.0 0.00 0.00 0.00 55 1022.8
20260502220358 58 305 2.0 3.0 0.00 0.00 0.00 54 1022.9
20260502215831 58 302 1.0 3.0 0.00 0.00 0.00 55 1022.8
20260502215313 58 282 1.0 3.0 0.00 0.00 0.00 55 1022.8
20260502214812 58 289 2.0 3.0 0.00 0.00 0.00 57 1022.8
20260502214312 58 321 2.0 3.0 0.00 0.00 0.00 55 1022.8
20260502213813 58 261 2.0 3.0 0.00 0.00 0.00 56 1022.8
20260502213341 58 318 1.0 3.0 0.00 0.00 0.00 55 1022.8
20260502212819 59 313 2.0 3.0 0.00 0.00 0.00 54 1022.9
20260502212318 59 311 2.0 3.0 0.00 0.00 0.00 54 1022.8
20260502211819 59 308 2.0 2.0 0.00 0.00 0.00 53 1022.7
20260502211320 59 230 1.0 2.0 0.00 0.00 0.00 54 1022.7
20260502210818 59 281 1.0 3.0 0.00 0.00 0.00 52 1022.7
20260502210318 59 311 2.0 3.0 0.00 0.00 0.00 52 1022.8
20260502205818 60 315 0.0 4.0 0.00 0.00 0.00 51 1022.8
20260502205319 60 315 2.0 4.0 0.00 0.00 0.00 51 1022.8
20260502204848 59 5 3.0 4.0 0.00 0.00 0.00 51 1022.8
20260502204327 59 10 1.0 3.0 0.00 0.00 0.00 52 1022.8
20260502203827 59 321 2.0 2.0 0.00 0.00 0.00 52 1022.8
20260502203342 59 294 1.0 3.0 0.00 0.00 0.00 52 1022.7
20260502202822 59 288 1.0 3.0 0.00 0.00 0.00 52 1022.7
20260502202321 59 286 1.0 3.0 0.00 0.00 0.00 53 1022.7
20260502201822 60 324 1.0 3.0 0.00 0.00 0.00 52 1022.8
20260502201322 60 313 0.0 3.0 0.00 0.00 0.00 52 1022.9
20260502200822 60 306 2.0 4.0 0.00 0.00 0.00 51 1022.9
20260502200321 60 297 3.0 4.0 0.00 0.00 0.00 50 1022.8
20260502195849 60 342 1.0 2.0 0.00 0.00 0.00 50 1022.8
20260502195326 60 309 1.0 2.0 0.00 0.00 0.00 51 1022.7
20260502194825 60 290 1.0 3.0 0.00 0.00 0.00 51 1022.9
20260502194326 60 323 2.0 3.0 0.00 0.00 0.00 51 1022.7
20260502193825 60 297 1.0 4.0 0.00 0.00 0.00 49 1022.7
20260502193326 60 301 1.0 4.0 0.00 0.00 0.00 50 1022.8
20260502192825 61 313 0.0 2.0 0.00 0.00 0.00 51 1022.7
20260502192342 61 313 1.0 3.0 0.00 0.00 0.00 51 1022.7
20260502191821 61 288 0.0 4.0 0.00 0.00 0.00 51 1022.7
20260502191323 61 298 3.0 4.0 0.00 0.00 0.00 50 1022.6
20260502190822 61 250 1.0 4.0 0.00 0.00 0.00 50 1022.6
20260502190321 61 317 2.0 4.0 0.00 0.00 0.00 48 1022.6
20260502185820 62 267 3.0 6.0 0.00 0.00 0.00 48 1022.5
20260502185320 62 279 3.0 6.0 0.00 0.00 0.00 47 1022.5
20260502184819 62 248 4.0 6.0 0.00 0.00 0.00 46 1022.5
20260502184313 62 283 4.0 7.0 0.00 0.00 0.00 47 1022.4
20260502183833 62 269 4.0 7.0 0.00 0.00 0.00 47 1022.5
20260502183332 62 288 3.0 7.0 0.00 0.00 0.00 46 1022.3
20260502182851 62 277 4.0 8.0 0.00 0.00 0.00 47 1022.3
20260502182348 62 275 5.0 8.0 0.00 0.00 0.00 46 1022.3
20260502181825 62 257 4.0 7.0 0.00 0.00 0.00 47 1022.2
20260502181324 63 259 4.0 8.0 0.00 0.00 0.00 46 1022.3
20260502180824 63 296 5.0 9.0 0.00 0.00 0.00 46 1022.2
20260502180323 63 298 4.0 9.0 0.00 0.00 0.00 46 1022.2
20260502170333 64 304 5.0 7.0 0.00 0.00 0.00 47 1022.2
20260502164328 65 313 4.0 7.0 0.00 0.00 0.00 45 1022.3
20260502163828 65 292 4.0 7.0 0.00 0.00 0.00 46 1022.3
20260502163328 65 309 4.0 8.0 0.00 0.00 0.00 45 1022.3
20260502162827 66 300 4.0 8.0 0.00 0.00 0.00 45 1022.3
20260502162324 66 287 4.0 7.0 0.00 0.00 0.00 45 1022.5
20260502161823 66 312 2.0 7.0 0.00 0.00 0.00 44 1022.5
20260502161323 67 294 3.0 5.0 0.00 0.00 0.00 43 1022.5
20260502160843 67 306 2.0 5.0 0.00 0.00 0.00 43 1022.5
20260502160323 67 341 4.0 5.0 0.00 0.00 0.00 43 1022.5
20260502151830 67 95 3.0 6.0 0.00 0.00 0.00 43 1022.9
20260502151328 67 117 3.0 8.0 0.00 0.00 0.00 44 1022.9
20260502150826 66 93 4.0 9.0 0.00 0.00 0.00 44 1023.0
20260502150326 67 85 4.0 7.0 0.00 0.00 0.00 43 1023.0
20260502130317 66 67 6.0 12.0 0.00 0.00 0.00 45 1024.3
20260502123329 65 92 6.0 11.0 0.00 0.00 0.00 46 1024.6
20260502122827 65 102 4.0 11.0 0.00 0.00 0.00 48 1024.6
20260502122327 65 93 5.0 11.0 0.00 0.00 0.00 47 1024.6
20260502121825 65 88 3.0 11.0 0.00 0.00 0.00 48 1024.8
20260502121324 65 105 6.0 9.0 0.00 0.00 0.00 47 1024.9
20260502120823 65 113 4.0 9.0 0.00 0.00 0.00 48 1024.9
20260502120343 65 134 5.0 9.0 0.00 0.00 0.00 47 1024.9
20260502115820 65 117 5.0 11.0 0.00 0.00 0.00 47 1025.0
20260502115341 64 96 6.0 11.0 0.00 0.00 0.00 49 1025.2
20260502114819 64 112 6.0 10.0 0.00 0.00 0.00 48 1025.1
20260502114319 63 106 6.0 11.0 0.00 0.00 0.00 48 1025.2
20260502113839 64 114 6.0 12.0 0.00 0.00 0.00 48 1025.3
20260502113338 63 134 7.0 14.0 0.00 0.00 0.00 49 1025.3
20260502112817 63 126 7.0 13.0 0.00 0.00 0.00 49 1025.3
20260502112317 63 60 7.0 13.0 0.00 0.00 0.00 48 1025.6
20260502111816 63 138 7.0 13.0 0.00 0.00 0.00 50 1025.6
20260502111315 63 32 8.0 12.0 0.00 0.00 0.00 49 1025.7
20260502110815 63 87 7.0 14.0 0.00 0.00 0.00 50 1025.7
20260502110335 63 80 8.0 13.0 0.00 0.00 0.00 50 1025.8
20260502105833 62 96 8.0 14.0 0.00 0.00 0.00 51 1025.9
20260502105332 62 104 10.0 14.0 0.00 0.00 0.00 50 1026.0
20260502104853 62 56 6.0 12.0 0.00 0.00 0.00 52 1026.0
20260502104332 63 97 8.0 13.0 0.00 0.00 0.00 53 1026.1
20260502103830 62 59 7.0 13.0 0.00 0.00 0.00 54 1026.2
20260502103328 62 95 7.0 11.0 0.00 0.00 0.00 55 1026.1
20260502102828 62 104 5.0 10.0 0.00 0.00 0.00 55 1026.3
20260502102321 62 111 7.0 13.0 0.00 0.00 0.00 53 1026.4
20260502101821 62 92 8.0 13.0 0.00 0.00 0.00 52 1026.3
20260502101319 62 79 5.0 8.0 0.00 0.00 0.00 54 1026.5
20260502100817 62 83 3.0 9.0 0.00 0.00 0.00 53 1026.5
20260502100318 61 84 4.0 9.0 0.00 0.00 0.00 56 1026.5
20260502091318 61 140 5.0 9.0 0.00 0.00 0.00 54 1026.8
20260502090817 61 153 3.0 6.0 0.00 0.00 0.00 54 1027.4
20260502090316 60 158 3.0 6.0 0.00 0.00 0.00 57 1027.0
20260502071323 56 119 2.0 4.0 0.00 0.00 0.00 66 1027.6
20260502070822 56 124 3.0 6.0 0.00 0.00 0.00 68 1027.8
20260502070342 56 142 3.0 6.0 0.00 0.00 0.00 64 1027.7
20260502065820 56 136 3.0 6.0 0.00 0.00 0.00 65 1027.7
20260502065321 55 95 3.0 4.0 0.00 0.00 0.00 66 1027.8
20260502064820 55 139 2.0 5.0 0.00 0.00 0.00 65 1027.7
20260502064318 55 170 3.0 4.0 0.00 0.00 0.00 65 1027.7
20260502063839 55 185 3.0 5.0 0.00 0.00 0.00 64 1027.8
20260502063317 54 148 2.0 4.0 0.00 0.00 0.00 68 1027.8
20260502062835 54 152 2.0 4.0 0.00 0.00 0.00 68 1027.8
20260502062348 54 153 2.0 4.0 0.00 0.00 0.00 69 1027.8
20260502061827 54 154 2.0 4.0 0.00 0.00 0.00 72 1027.8
20260502061326 54 123 2.0 4.0 0.00 0.00 0.00 72 1027.8
20260502060824 54 110 2.0 4.0 0.00 0.00 0.00 71 1027.7
20260502060323 54 119 2.0 3.0 0.00 0.00 0.00 66 1027.8
20260502055822 54 142 2.0 3.0 0.00 0.00 0.00 65 1027.7
20260502055322 54 178 1.0 4.0 0.00 0.00 0.00 66 1027.8
20260502054823 54 192 2.0 4.0 0.00 0.00 0.00 64 1027.7
20260502054344 54 186 1.0 2.0 0.00 0.00 0.00 66 1027.7
20260502053822 54 200 0.0 2.0 0.00 0.00 0.00 64 1027.8